075  
ASUS43 KIWX 171710  
RWRIWX  
 
KIWX WEATHER ROUNDUP  
NATIONAL WEATHER SERVICE NORTHERN INDIANA  
100 PM EDT WED AUG 17 2022  
 
NOTE: "FAIR" INDICATES FEW OR NO CLOUDS BELOW 12,000 FEET WITH NO  
SIGNIFICANT WEATHER AND/OR S TO VISIBILITY
.  
 
* THESE STATIONS ARE NOT UNDER NWS QUALITY CONTROL. THEY ALSO MAY NOT  
REPORT WEATHER SUCH AS PRECIPITATION OR FOG.
 
 
INZ001>027-171800-  
NORTHERN INDIANA  
 
CITY SKY/WX TMP DP RH WIND PRES REMARKS
 
GARY* SUNNY 75 63 64 NE10 30.15S  
VALPARAISO MOSUNNY 82 60 47 E8 30.14F  
MICHIGAN CITY* MOSUNNY 77 61 57 N9 30.14F  
LAPORTE* MOSUNNY 78 64 63 NE7 30.14F  
KNOX* MOSUNNY 77 61 57 NE10 30.13F  
SOUTH BEND MOSUNNY 80 60 50 N9 30.14F  
ELKHART* MOSUNNY 78 59 52 E7 30.14F  
GOSHEN MOSUNNY 78 59 51 E7 30.13F  
MONTICELLO* PTSUNNY 78 59 52 NE9 30.12S  
LOGANSPORT* MOSUNNY 77 59 53 N5 30.13S  
ROCHESTER* MOSUNNY 77 59 53 NE8 30.13S  
PLYMOUTH* SUNNY 75 59 57 NE6G12 30.13F  
WARSAW* MOSUNNY 75 59 57 NE6 30.13S  
AUBURN* SUNNY 77 61 57 NE8 30.13S  
FORT WAYNE PTSUNNY 76 61 59 E5 30.12S  
HUNTINGTON* CLOUDY N/A N/A N/A NE5 30.12S  
PERU/GRISSOM MOSUNNY 77 62 59 NE10 30.11F  
 

 
INZ028>050-171800-  
CENTRAL INDIANA  
 
CITY SKY/WX TMP DP RH WIND PRES REMARKS
 
LAFAYETTE MOSUNNY 80 60 50 NE9 30.11F  
KOKOMO* PTSUNNY 77 63 61 NE9 30.13S  
MARION* MOSUNNY 75 63 66 NE6 30.12F  
MUNCIE* SUNNY 77 61 57 NE9 30.10F  
INDIANAPOLIS MOSUNNY 78 57 48 NE13 30.10S  
 

 
MIZ043>046-050>051-056>058-064>065-071>073-077>080-171800-  
SOUTHWEST LOWER MICHIGAN  
 
CITY SKY/WX TMP DP RH WIND PRES REMARKS
 
BATTLE CREEK MOSUNNY 78 60 53 NE9 30.14F  
BENTON HARBOR N/A 77 63 61 NW8 30.14  
COLDWATER* SUNNY 76 58 53 NE9 30.13F  
HILLSDALE* SUNNY 74 57 54 N6 30.13F  
HOLLAND MOSUNNY 80 57 45 VRB3 30.14F  
GRAND RAPIDS MOSUNNY 78 57 48 N9 30.15S  
KALAMAZOO MOSUNNY 80 58 46 VRB5 30.14S  
STURGIS* MOSUNNY 75 58 53 E7 30.13S  
THREE RIVERS* FAIR 78 60 54 NE7 30.14S HAZE  
 

 
OHZ001>008-015>018-024>025-171800-  
NORTHWEST OHIO  
 
CITY SKY/WX TMP DP RH WIND PRES REMARKS
 
WAUSEON* FAIR 79 57 47 VRB5 30.11F  
DEFIANCE MOSUNNY 77 60 55 VRB6 30.11F  
FINDLAY PTSUNNY 78 61 55 NE12G17 30.09S  
OTTAWA* FAIR 79 57 47 NE7 30.12S  
TOLEDO EXPRESS MOSUNNY 82 57 42 N8 30.11F  
VAN WERT* FAIR 73 61 64 N7 30.11F  
LIMA MOSUNNY 77 60 55 NE6 30.10S  
 

 
AND FOR LAKE MICHIGAN COASTAL AND OPEN LAKE BUOY OBSERVATIONS  
 
STATION/POSITION TEMP WIND PRES VSBY WAVE
 
AIR SEA DIR/SP/G HT/PER  
(F) (DEG/KT/KT) (MB) (MI) (FT/S)  
CALUMET HARBOR 72 20/ 7/ 10 1019.3F  
MICHIGAN CITY 70 1019.7F  
BURNS HARBOR 71 CALM 1021.3S  
SAINT JOSEPH 70 20/ 6/ 8 1021.3  
SOUTH LAKE BUOY 69 71 50/ 4/ 4 1021.2F 1/ 3  
4 MI NW BRIDGMAN 66 66 310/ 6/ 8 1020.8F 1/ 4  
MICHIGAN CITY 70 N/A 1/ 4  
 

 

 
 
 
CLICK HERE TO GO TO PREVIOUS BULLETINS.

The Nexlab IN Page
The Nexlab OH Page
The Nexlab MI Page Main Text Page